USA 167

Last updated on Wed Sep 17 2025 00:02:46 GMT+0000 (Coordinated Universal Time)

1 27691U 03008A 25259.48813825 -.00000009 00000+0 00000+0 0 9996 2 27691 10.4146 45.7880 0002412 244.8178 118.7271 1.00272837 4032
UTC large
Height (km)
Speed (km/s)
/
Latitude / Longitude
Inclination (degrees)
Orbital Period (minutes)
Azimuth
Elevation
Range (km)
Doppler Factor

Next 0 passes for location: London (51.5072 / 0.1276)

Sorry there are no passes over London.